| time (UTC) | temp F | wind direction | speed MPH | gust MPH | rain 1hr in | rain 24hr in | rain mn in | humidity % | barometer mb |
| 20260504110404 | 57 | 291 | 7.0 | 12.0 | 0.00 | 0.69 | 0.00 | 70 | 1014.1 |
| 20260504100404 | 55 | 231 | 3.0 | 7.0 | 0.00 | 0.69 | 0.00 | 81 | 1014.4 |
| 20260504081903 | 50 | 261 | 0.0 | 2.0 | 0.00 | 0.69 | 0.00 | 100 | 1014.4 |
| 20260504081404 | 50 | 261 | 1.0 | 3.0 | 0.00 | 0.69 | 0.00 | 100 | 1014.4 |
| 20260504080403 | 51 | 257 | 0.0 | 0.0 | 0.00 | 0.69 | 0.00 | 100 | 1014.4 |
| 20260504070403 | 49 | 262 | 0.0 | 0.0 | 0.00 | 0.69 | 0.00 | 100 | 1014.1 |
| 20260504045904 | 49 | 255 | 0.0 | 0.0 | 0.00 | 0.69 | 0.00 | 100 | 1013.2 |
| 20260504045404 | 49 | 255 | 0.0 | 0.0 | 0.00 | 0.69 | 0.00 | 100 | 1013.2 |
| 20260504044904 | 49 | 255 | 0.0 | 0.0 | 0.00 | 0.69 | 0.00 | 100 | 1013.2 |
| 20260504044404 | 49 | 255 | 0.0 | 0.0 | 0.00 | 0.69 | 0.00 | 100 | 1013.3 |
| 20260504043903 | 49 | 255 | 0.0 | 0.0 | 0.00 | 0.69 | 0.00 | 100 | 1013.2 |
| 20260504043403 | 49 | 255 | 0.0 | 0.0 | 0.00 | 0.69 | 0.00 | 100 | 1013.3 |
| 20260504042403 | 49 | 255 | 0.0 | 0.0 | 0.00 | 0.69 | 0.00 | 100 | 1013.4 |
| 20260504041403 | 49 | 255 | 0.0 | 0.0 | 0.00 | 0.69 | 0.00 | 100 | 1013.3 |
| 20260504040904 | 49 | 255 | 0.0 | 3.0 | 0.00 | 0.69 | 0.00 | 100 | 1013.4 |
| 20260504040403 | 49 | 254 | 1.0 | 3.0 | 0.00 | 0.69 | 0.00 | 100 | 1013.4 |
| 20260504035903 | 49 | 253 | 0.0 | 2.0 | 0.00 | 0.69 | 0.00 | 100 | 1013.4 |
| 20260504035403 | 49 | 253 | 1.0 | 5.0 | 0.00 | 0.69 | 0.00 | 100 | 1013.4 |
| 20260504034903 | 49 | 239 | 3.0 | 5.0 | 0.00 | 0.69 | 0.00 | 100 | 1013.5 |
| 20260504034403 | 49 | 242 | 0.0 | 6.0 | 0.00 | 0.69 | 0.00 | 100 | 1013.5 |
| 20260504033903 | 49 | 242 | 1.0 | 5.0 | 0.00 | 0.69 | 0.00 | 100 | 1013.5 |
| 20260504033403 | 49 | 238 | 2.0 | 5.0 | 0.00 | 0.69 | 0.00 | 100 | 1013.4 |
| 20260504032904 | 49 | 248 | 1.0 | 3.0 | 0.00 | 0.69 | 0.00 | 100 | 1013.4 |
| 20260504032404 | 49 | 248 | 1.0 | 3.0 | 0.00 | 0.69 | 0.00 | 100 | 1013.4 |
| 20260504031904 | 49 | 248 | 2.0 | 5.0 | 0.00 | 0.69 | 0.00 | 100 | 1013.4 |
| 20260504031403 | 49 | 241 | 0.0 | 2.0 | 0.00 | 0.69 | 0.00 | 100 | 1013.4 |
| 20260504030404 | 49 | 241 | 1.0 | 6.0 | 0.00 | 0.69 | 0.00 | 100 | 1013.4 |
| 20260504025904 | 50 | 265 | 1.0 | 3.0 | 0.00 | 0.69 | 0.00 | 100 | 1013.4 |
| 20260504025403 | 50 | 266 | 3.0 | 6.0 | 0.00 | 0.69 | 0.00 | 100 | 1013.4 |
| 20260504024904 | 50 | 266 | 1.0 | 6.0 | 0.00 | 0.69 | 0.00 | 100 | 1013.4 |
| 20260504023903 | 50 | 210 | 0.0 | 2.0 | 0.00 | 0.69 | 0.00 | 100 | 1013.4 |
| 20260504021903 | 51 | 191 | 0.0 | 0.0 | 0.00 | 0.69 | 0.00 | 100 | 1013.3 |
| 20260504021404 | 51 | 187 | 0.0 | 2.0 | 0.00 | 0.69 | 0.00 | 100 | 1013.3 |
| 20260504020904 | 51 | 183 | 0.0 | 0.0 | 0.00 | 0.69 | 0.00 | 100 | 1013.3 |
| 20260504020404 | 51 | 183 | 0.0 | 2.0 | 0.00 | 0.69 | 0.00 | 100 | 1013.3 |
| 20260504015903 | 51 | 181 | 0.0 | 0.0 | 0.00 | 0.69 | 0.00 | 100 | 1013.3 |
| 20260504014903 | 50 | 178 | 0.0 | 0.0 | 0.00 | 0.69 | 0.00 | 100 | 1013.3 |
| 20260504013904 | 50 | 178 | 0.0 | 0.0 | 0.00 | 0.69 | 0.00 | 100 | 1013.3 |
| 20260504013404 | 50 | 178 | 0.0 | 0.0 | 0.00 | 0.69 | 0.00 | 100 | 1013.3 |
| 20260504011904 | 50 | 178 | 0.0 | 0.0 | 0.00 | 0.69 | 0.00 | 100 | 1013.4 |
| 20260504011403 | 51 | 178 | 0.0 | 0.0 | 0.00 | 0.69 | 0.00 | 100 | 1013.4 |
| 20260504010904 | 51 | 178 | 0.0 | 1.0 | 0.00 | 0.69 | 0.00 | 100 | 1013.5 |
| 20260504010403 | 51 | 178 | 0.0 | 2.0 | 0.00 | 0.69 | 0.00 | 100 | 1013.5 |
| 20260504005404 | 51 | 177 | 0.0 | 0.0 | 0.00 | 0.69 | 0.00 | 100 | 1013.4 |
| 20260504004904 | 50 | 176 | 1.0 | 3.0 | 0.00 | 0.69 | 0.00 | 100 | 1013.4 |
| 20260504004403 | 51 | 174 | 1.0 | 2.0 | 0.00 | 0.69 | 0.00 | 100 | 1013.4 |
| 20260504002904 | 51 | 193 | 0.0 | 0.0 | 0.00 | 0.69 | 0.00 | 100 | 1013.6 |
| 20260504002403 | 51 | 193 | 0.0 | 0.0 | 0.00 | 0.69 | 0.00 | 100 | 1013.7 |
| 20260504001904 | 51 | 193 | 0.0 | 1.0 | 0.00 | 0.69 | 0.00 | 100 | 1013.6 |
| 20260504001403 | 51 | 193 | 0.0 | 0.0 | 0.00 | 0.69 | 0.00 | 100 | 1013.7 |
| 20260504000904 | 51 | 193 | 0.0 | 0.0 | 0.00 | 0.69 | 0.00 | 100 | 1013.7 |
| 20260503235903 | 51 | 193 | 0.0 | 0.0 | 0.00 | 0.69 | 0.00 | 100 | 1013.7 |
| 20260503235403 | 51 | 193 | 0.0 | 2.0 | 0.00 | 0.69 | 0.00 | 100 | 1013.7 |
| 20260503234903 | 51 | 193 | 1.0 | 2.0 | 0.00 | 0.69 | 0.00 | 100 | 1013.7 |
| 20260503234403 | 51 | 193 | 2.0 | 3.0 | 0.00 | 0.69 | 0.00 | 100 | 1013.8 |
| 20260503233904 | 51 | 193 | 1.0 | 3.0 | 0.00 | 0.69 | 0.00 | 100 | 1013.9 |
| 20260503233404 | 51 | 194 | 0.0 | 2.0 | 0.00 | 0.69 | 0.00 | 100 | 1013.8 |
| 20260503232903 | 51 | 193 | 0.0 | 2.0 | 0.00 | 0.70 | 0.00 | 100 | 1013.8 |
| 20260503232404 | 51 | 194 | 1.0 | 3.0 | 0.00 | 0.70 | 0.00 | 100 | 1013.8 |
| 20260503231903 | 51 | 194 | 0.0 | 0.0 | 0.00 | 0.70 | 0.00 | 100 | 1013.8 |
| 20260503231403 | 51 | 194 | 0.0 | 0.0 | 0.00 | 0.70 | 0.00 | 100 | 1013.8 |
| 20260503230903 | 51 | 194 | 0.0 | 0.0 | 0.00 | 0.70 | 0.00 | 100 | 1013.7 |
| 20260503230404 | 51 | 194 | 0.0 | 1.0 | 0.00 | 0.70 | 0.00 | 100 | 1013.7 |
| 20260503225904 | 51 | 194 | 0.0 | 0.0 | 0.00 | 0.70 | 0.00 | 100 | 1013.8 |
| 20260503225403 | 51 | 194 | 1.0 | 3.0 | 0.00 | 0.70 | 0.00 | 100 | 1013.8 |
| 20260503224904 | 51 | 194 | 2.0 | 3.0 | 0.00 | 0.70 | 0.00 | 100 | 1013.8 |
| 20260503224403 | 51 | 194 | 2.0 | 6.0 | 0.00 | 0.70 | 0.00 | 100 | 1013.8 |
| 20260503223906 | 51 | 175 | 4.0 | 6.0 | 0.00 | 0.70 | 0.00 | 100 | 1013.8 |
| 20260503223406 | 51 | 175 | 3.0 | 6.0 | 0.00 | 0.70 | 0.00 | 100 | 1013.8 |
| 20260503222914 | 51 | 187 | 4.0 | 7.0 | 0.00 | 0.70 | 0.00 | 100 | 1013.8 |
| 20260503222404 | 51 | 194 | 1.0 | 3.0 | 0.01 | 0.70 | 0.00 | 100 | 1013.9 |
| 20260503221904 | 51 | 188 | 3.0 | 6.0 | 0.01 | 0.70 | 0.00 | 100 | 1013.9 |
| 20260503221403 | 51 | 189 | 4.0 | 6.0 | 0.01 | 0.70 | 0.00 | 100 | 1013.9 |
| 20260503220904 | 51 | 177 | 1.0 | 3.0 | 0.01 | 0.70 | 0.00 | 100 | 1013.9 |
| 20260503220403 | 51 | 216 | 2.0 | 3.0 | 0.02 | 0.70 | 0.00 | 100 | 1013.9 |
| 20260503215904 | 52 | 217 | 0.0 | 0.0 | 0.02 | 0.70 | 0.70 | 100 | 1013.9 |
| 20260503214904 | 51 | 216 | 0.0 | 1.0 | 0.02 | 0.70 | 0.70 | 100 | 1013.8 |
| 20260503214403 | 51 | 216 | 0.0 | 0.0 | 0.02 | 0.70 | 0.70 | 100 | 1013.8 |
| 20260503213903 | 51 | 216 | 1.0 | 3.0 | 0.02 | 0.70 | 0.70 | 100 | 1013.9 |
| 20260503213404 | 52 | 217 | 2.0 | 3.0 | 0.02 | 0.70 | 0.70 | 100 | 1013.9 |
| 20260503212403 | 52 | 236 | 2.0 | 3.0 | 0.02 | 0.69 | 0.69 | 100 | 1013.9 |
| 20260503211403 | 52 | 249 | 0.0 | 0.0 | 0.02 | 0.69 | 0.69 | 100 | 1013.9 |
| 20260503210904 | 52 | 249 | 0.0 | 1.0 | 0.02 | 0.69 | 0.69 | 100 | 1013.9 |
| 20260503210404 | 52 | 250 | 0.0 | 0.0 | 0.02 | 0.69 | 0.69 | 100 | 1013.8 |
| 20260503205904 | 52 | 250 | 0.0 | 0.0 | 0.02 | 0.69 | 0.69 | 100 | 1013.7 |
| 20260503205404 | 52 | 250 | 0.0 | 0.0 | 0.02 | 0.69 | 0.69 | 100 | 1013.6 |
| 20260503204904 | 52 | 250 | 0.0 | 0.0 | 0.02 | 0.69 | 0.69 | 100 | 1013.6 |
| 20260503204403 | 52 | 250 | 0.0 | 0.0 | 0.02 | 0.69 | 0.69 | 100 | 1013.6 |
| 20260503203904 | 52 | 250 | 0.0 | 0.0 | 0.02 | 0.69 | 0.69 | 100 | 1013.6 |
| 20260503203403 | 52 | 250 | 0.0 | 0.0 | 0.02 | 0.69 | 0.69 | 100 | 1013.5 |
| 20260503202404 | 52 | 250 | 0.0 | 0.0 | 0.02 | 0.68 | 0.68 | 100 | 1013.5 |
| 20260503201904 | 52 | 250 | 0.0 | 2.0 | 0.03 | 0.68 | 0.68 | 100 | 1013.5 |
| 20260503200904 | 52 | 250 | 1.0 | 3.0 | 0.03 | 0.68 | 0.67 | 100 | 1013.3 |
| 20260503200404 | 52 | 244 | 2.0 | 7.0 | 0.03 | 0.68 | 0.67 | 100 | 1013.3 |
| 20260503195904 | 52 | 271 | 2.0 | 3.0 | 0.03 | 0.69 | 0.67 | 100 | 1013.2 |
| 20260503195403 | 52 | 243 | 2.0 | 6.0 | 0.03 | 0.69 | 0.67 | 100 | 1013.1 |
| 20260503194403 | 52 | 251 | 3.0 | 9.0 | 0.03 | 0.69 | 0.66 | 100 | 1013.0 |
| 20260503193903 | 52 | 235 | 3.0 | 6.0 | 0.04 | 0.70 | 0.66 | 100 | 1013.0 |
| 20260503193404 | 52 | 255 | 2.0 | 6.0 | 0.04 | 0.71 | 0.66 | 100 | 1012.9 |
| 20260503192903 | 52 | 254 | 2.0 | 5.0 | 0.04 | 0.72 | 0.66 | 100 | 1012.8 |
| 20260503192403 | 52 | 252 | 2.0 | 6.0 | 0.03 | 0.72 | 0.65 | 100 | 1012.8 |
| 20260503190904 | 53 | 211 | 1.0 | 3.0 | 0.02 | 0.73 | 0.64 | 99 | 1012.7 |
| 20260503190404 | 53 | 190 | 1.0 | 3.0 | 0.02 | 0.75 | 0.64 | 99 | 1012.7 |
| 20260503185904 | 53 | 223 | 1.0 | 3.0 | 0.02 | 0.78 | 0.64 | 99 | 1012.6 |
| 20260503184904 | 53 | 232 | 2.0 | 3.0 | 0.01 | 0.79 | 0.63 | 99 | 1012.5 |
| 20260503184404 | 53 | 243 | 1.0 | 3.0 | 0.01 | 0.79 | 0.63 | 99 | 1012.5 |
| 20260503183903 | 52 | 244 | 1.0 | 3.0 | 0.00 | 0.78 | 0.62 | 100 | 1012.5 |
| 20260503183403 | 52 | 244 | 0.0 | 3.0 | 0.00 | 0.78 | 0.62 | 100 | 1012.5 |
| 20260503182904 | 52 | 244 | 0.0 | 2.0 | 0.01 | 0.78 | 0.62 | 100 | 1012.4 |
| 20260503182403 | 53 | 244 | 0.0 | 1.0 | 0.01 | 0.78 | 0.62 | 99 | 1012.4 |
| 20260503181904 | 53 | 240 | 0.0 | 2.0 | 0.01 | 0.78 | 0.62 | 99 | 1012.4 |
| 20260503181403 | 53 | 240 | 0.0 | 2.0 | 0.01 | 0.78 | 0.62 | 99 | 1012.4 |
| 20260503180904 | 53 | 239 | 0.0 | 2.0 | 0.01 | 0.78 | 0.62 | 99 | 1012.4 |
| 20260503180404 | 53 | 239 | 0.0 | 3.0 | 0.01 | 0.78 | 0.62 | 99 | 1012.4 |
| 20260503175903 | 52 | 240 | 1.0 | 3.0 | 0.02 | 0.78 | 0.62 | 100 | 1012.4 |
| 20260503175404 | 52 | 242 | 0.0 | 3.0 | 0.02 | 0.78 | 0.62 | 100 | 1012.3 |
| 20260503174404 | 52 | 238 | 2.0 | 5.0 | 0.03 | 0.78 | 0.62 | 100 | 1012.4 |
| 20260503173903 | 52 | 229 | 3.0 | 6.0 | 0.05 | 0.78 | 0.62 | 100 | 1012.4 |
| 20260503173403 | 52 | 242 | 3.0 | 8.0 | 0.07 | 0.78 | 0.62 | 99 | 1012.4 |
| 20260503172903 | 53 | 224 | 3.0 | 6.0 | 0.09 | 0.77 | 0.61 | 99 | 1012.3 |
| 20260503172404 | 53 | 247 | 4.0 | 7.0 | 0.11 | 0.77 | 0.61 | 99 | 1012.3 |
| 20260503171904 | 53 | 256 | 2.0 | 7.0 | 0.15 | 0.77 | 0.61 | 99 | 1012.2 |
| 20260503171404 | 53 | 268 | 2.0 | 7.0 | 0.18 | 0.77 | 0.61 | 99 | 1012.2 |
| 20260503170904 | 53 | 248 | 1.0 | 3.0 | 0.20 | 0.77 | 0.61 | 99 | 1012.2 |
| 20260503170404 | 53 | 247 | 2.0 | 6.0 | 0.22 | 0.77 | 0.61 | 99 | 1012.2 |
| 20260503150903 | 54 | 169 | 2.0 | 5.0 | 0.10 | 0.49 | 0.32 | 99 | 1011.8 |
| 20260503150404 | 54 | 241 | 2.0 | 6.0 | 0.09 | 0.47 | 0.31 | 99 | 1011.8 |
| 20260503131403 | 54 | 213 | 2.0 | 3.0 | 0.18 | 1.00 | 0.19 | 97 | 1011.9 |
| 20260503130903 | 54 | 232 | 2.0 | 5.0 | 0.17 | 0.99 | 0.18 | 97 | 1011.9 |
| 20260503130404 | 54 | 320 | 2.0 | 12.0 | 0.17 | 0.98 | 0.17 | 96 | 1011.9 |